Regional Weather Roundup
Issued by NWS Memphis, TN

Home | Current Version | Previous Version | Text Only | Print | Product List | Glossary On
Versions: 1 2 3 4 5 6 7 8 9 10 11 12 13 14 15 16 17 18 19 20 21 22 23 24 25 26 27 28 29 30 31 32 33 34 35 36 37 38 39 40 41 42 43 44 45 46 47 48 49 50
000
ASUS44 KMEG 210810
RWRMEG
MEMPHIS CWA HOURLY WEATHER ROUNDUP
NATIONAL WEATHER SERVICE MEMPHIS TN
200 AM CST SUN JAN 21 2018

...WEST TENNESSEE...

CITY           SKY/WX    TMP DP  RH WIND       PRES   REMARKS
MEMPHIS INTL   MOCLDY    54  50  86 S10       30.08S
NWS MEMPHIS      N/A     56 N/A N/A MISG        N/A
JACKSON        FAIR      54  44  69 S8        30.10F
COVINGTON      CLOUDY    55  50  82 S8G15     30.08S
SOMERVILLE     CLOUDY    55  48  76 S9G16     30.08S
BOLIVAR        CLOUDY    54  45  71 SE7       30.10F
LEXINGTON      CLOUDY    55  41  58 S9        30.12F
SELMER         CLOUDY    54  41  62 S8        30.12F
SAVANNAH       CLOUDY    54  41  62 S5        30.14S
DYERSBURG      MOCLDY    52  47  83 S6        30.08S
UNION CITY     CLOUDY    48  45  87 S9        30.07S
PARIS          CLOUDY    50  41  71 S10       30.09S
HUNTINGDON     CLOUDY    50  41  71 S9        30.09S


...EASTERN ARKANSAS...

CITY           SKY/WX    TMP DP  RH WIND       PRES   REMARKS
JONESBORO      CLOUDY    52  52 100 S8        30.04R
WEST MEMPHIS   CLOUDY    55  51  86 S18       30.06S
BATESVILLE     LGT RAIN  58  56  93 S10G21    30.00S
NEWPORT        FAIR      55  53  93 S16       30.02S
WALNUT RIDGE   CLOUDY    51  50  96 S13       30.01F
BLYTHEVILLE    CLOUDY    53  53 100 S8        30.06S
SEARCY         CLOUDY    58  58 100 S13       30.03R
PINE BLUFF     CLOUDY    60  56  86 S15       30.05R
MONTICELLO     CLOUDY    59  54  83 S8        30.07S


...NORTH MISSISSIPPI...

CITY           SKY/WX    TMP DP  RH WIND       PRES   REMARKS
TUPELO         MOCLDY    50  41  71 SE7       30.15F
BATESVILLE     MOCLDY    55  47  73 S5        30.12S
TUNICA           N/A     50  46  87 S13       30.09S
CLARKSDALE     CLOUDY    54  54 100 SE12      30.09F
CORINTH        FAIR      50  39  66 S8        30.13F
GREENWOOD      CLOUDY    55  47  74 S12       30.13S
COLUMBUS       FAIR      46  40  82 SE7       30.17F
STARKVILLE     FAIR      45  41  87 S6        30.18S
GOLDEN TRIANGL FAIR      45  40  82 S8        30.19R


...SOUTHEAST MISSOURI...

CITY           SKY/WX    TMP DP  RH WIND       PRES   REMARKS
KENNETT        CLOUDY    50  48  93 S8        30.04R
MALDEN         FAIR      48  46  93 S8        30.04S
WEST PLAINS    CLOUDY    50  49  96 S7        29.96S
POPLAR BLUFF   CLOUDY    50  49  96 S9        30.01F
CAPE GIRARDEAU CLOUDY    48  45  89 S7        30.03S


...NORTHWEST ALABAMA...

CITY           SKY/WX    TMP DP  RH WIND       PRES   REMARKS
MUSCLE SHOALS  FAIR      51  37  58 S5        30.18S


...MIDDLE TENNESSEE...

CITY           SKY/WX    TMP DP  RH WIND       PRES   REMARKS
NASHVILLE      CLOUDY    54  37  52 S10       30.16S
CLARKSVILLE    MOCLDY    53  38  56 S9        30.11S
COLUMBIA       PTCLDY    54  37  54 S9        30.14S


...WESTERN KENTUCKY...

CITY           SKY/WX    TMP DP  RH WIND       PRES   REMARKS
PADUCAH        MOCLDY    52  42  69 SW7       30.06R
FORT CAMPBELL  MOCLDY    53  38  57 S7        30.10S


...CENTRAL ARKANSAS...

CITY           SKY/WX    TMP DP  RH WIND       PRES   REMARKS
LITTLE ROCK    CLOUDY    61  58  90 S12G22    30.02S


SKY/WX REPORTED AS FAIR MEANS FEW OR NO CLOUDS BELOW
12 THOUSAND FEET.





USA.gov is the U.S. government's official web portal to all federal, state and local government web resources and services.